Temperature
20 18 17 17 18 17 17 16 16 16 16 16 15 15 15 15 15 15 15 15 15 15 14 14 14 14 14 14 14 14 14 15 15 15 15 15 15 15 15 15 14 13 12
21 18 17 17 18 17 17 17 16 16 15 15 15 15 15 15 15 15 15 15 14 14 14 14 14 14 14 14 14 14 14 14 14 14 14 15 15 15 15 14 14 13 13
21 19 18 18 18 18 18 18 17 16 15 15 14 14 14 15 15 15 15 14 13 13 13 13 13 13 13 14 14 14 15 14 14 14 14 14 15 14 14 14 14 13 13
20 19 19 18 18 18 19 18 17 16 15 14 14 14 14 15 15 15 15 14 13 13 13 13 13 14 14 14 15 15 15 14 14 14 14 14 14 14 14 14 14 14 13
20 20 19 19 19 19 19 19 18 16 15 14 14 14 15 15 15 16 15 15 15 15 14 14 14 14 14 14 15 15 15 14 14 13 13 13 13 13 13 14 14 14 13
20 19 19 19 19 19 19 19 18 16 15 14 14 14 15 15 15 15 15 15 15 15 15 14 14 14 14 14 14 14 14 13 13 13 13 13 13 13 13 13 13 13 13
19 19 19 19 19 19 19 19 18 16 15 15 15 15 15 15 15 16 15 15 15 15 14 14 14 14 14 14 14 14 13 13 13 13 13 13 13 12 13 13 13 13 13
19 18 18 19 19 19 19 19 18 17 16 15 15 15 15 15 15 15 15 15 15 14 14 13 13 14 14 14 14 14 13 13 13 13 13 13 12 12 13 13 13 13 13
18 18 18 19 19 19 19 19 18 17 16 16 16 15 15 15 15 15 15 15 14 14 13 13 13 14 14 14 14 14 13 13 13 13 12 12 12 12 12 12 12 12 12
18 18 18 19 19 19 19 19 18 18 17 16 16 15 15 14 14 14 14 14 14 13 13 13 13 13 14 14 14 13 13 13 13 13 12 12 12 12 12 12 12 11 11
17 17 18 18 18 19 19 18 18 18 17 16 16 15 14 14 14 14 14 14 14 14 13 13 13 13 13 13 14 14 13 13 13 12 12 11 11 11 11 11 11 11 11
18 18 17 18 18 18 18 18 18 18 18 17 16 15 14 14 14 14 13 13 13 13 14 14 13 13 13 13 13 14 13 13 13 12 11 11 10 10 10 10 10 10 10
19 18 18 17 17 17 17 17 17 18 18 17 16 15 14 14 14 14 13 13 13 13 14 14 13 13 13 13 13 13 13 13 12 11 11 10 10 9 9 9 9 9 9
19 19 18 17 17 17 17 17 17 17 17 18 17 16 15 14 14 14 13 13 13 13 13 13 13 13 13 13 13 13 13 13 12 11 10 10 9 9 9 9 9 9 9
18 18 18 18 17 17 16 16 16 16 16 17 17 17 16 15 14 14 13 13 13 13 13 13 13 13 13 13 13 13 13 12 11 10 10 9 9 9 9 9 9 8 8
18 18 18 18 17 17 17 16 16 16 16 16 16 16 16 15 14 14 13 13 13 13 13 12 12 12 12 13 13 13 12 12 11 10 9 9 9 9 8 8 8 8 8
17 17 17 17 17 17 17 17 17 16 16 16 16 16 15 15 15 14 13 13 13 13 12 12 12 12 12 12 12 12 12 11 10 10 9 9 9 8 8 8 8 8 8
17 17 17 17 17 17 17 17 17 17 16 16 16 15 15 15 14 14 13 13 13 12 12 12 12 12 12 12 12 12 12 11 10 9 8 8 8 8 8 8 8 8 8
18 18 17 17 17 17 17 17 17 17 16 16 16 15 15 14 14 14 13 13 12 12 12 12 12 12 12 12 12 12 11 11 10 9 8 8 8 8 8 8 8 8 8
17 17 17 17 17 17 17 17 17 16 16 16 16 15 15 15 14 13 13 13 12 12 12 11 11 11 12 12 12 12 11 10 9 9 8 8 7 7 7 7 7 7 7
17 17 17 17 17 17 17 17 17 16 16 16 16 16 15 15 14 13 13 13 12 12 12 11 11 11 11 12 12 11 10 10 9 8 8 8 7 7 7 7 7 7 6
17 17 17 17 17 17 17 17 17 17 17 17 17 16 16 15 14 14 13 13 12 12 12 11 11 11 11 12 12 11 10 10 9 9 8 8 7 7 6 6 6 6 6
16 17 17 16 16 17 17 16 16 16 16 16 16 16 16 15 15 15 14 14 13 12 12 12 11 11 12 12 12 12 12 11 9 9 9 8 7 7 6 6 6 5 5
16 16 16 16 16 16 16 16 16 16 15 16 16 16 16 16 15 15 15 14 13 13 12 12 11 11 12 12 12 11 11 11 11 10 9 8 7 7 6 6 5 5 5
15 15 15 16 16 16 16 16 16 16 16 16 15 15 15 16 15 15 15 15 14 13 12 12 11 11 12 12 12 11 11 10 10 10 9 9 8 7 6 5 5 4 4
14 14 15 15 15 15 15 15 15 15 15 15 15 15 15 15 15 15 15 15 14 14 13 12 11 11 11 11 11 11 11 10 10 10 9 9 8 7 6 5 4 4 4
Wind_Speed
6 10 18 17 16 15 15 15 16 16 17 18 18 17 16 14 12 11 10 9 8 7 8 10 11 13 13 13 12 12 12 12 12 12 12 12 12 11 11 9 7 6 7
9 14 19 17 16 15 15 15 15 16 16 17 17 16 15 13 11 10 9 9 8 8 10 12 12 13 12 11 11 11 11 11 10 9 10 10 10 10 10 9 7 6 6
11 15 18 18 16 15 15 14 14 15 16 16 17 16 14 12 11 10 10 10 9 9 11 13 13 12 11 10 11 11 10 9 8 7 7 7 7 8 8 7 6 5 5
13 15 17 18 16 15 15 14 14 14 15 16 16 16 14 13 12 11 11 11 11 10 11 12 11 10 10 10 10 10 9 8 7 6 5 4 6 6 6 5 4 4 4
11 14 17 18 16 15 15 15 14 14 15 16 16 15 14 13 13 12 12 12 11 11 10 10 9 9 9 9 9 8 8 7 6 6 5 3 4 5 6 5 4 3 3
9 14 18 19 16 15 15 15 15 15 16 16 16 15 15 14 13 13 12 11 10 10 9 9 8 8 8 9 8 7 7 8 8 8 6 3 4 5 5 6 6 5 4
10 13 17 18 16 16 16 15 15 15 16 16 16 15 14 14 13 12 11 10 8 8 8 8 7 7 8 8 8 7 7 9 10 10 7 3 5 4 6 6 6 7 7
11 11 16 18 17 16 16 15 14 14 15 15 16 15 14 13 12 12 11 9 7 6 6 6 7 7 8 9 9 8 8 10 10 9 6 4 5 4 4 5 6 7 10
10 9 11 15 16 16 16 15 15 14 14 14 15 15 14 13 13 12 10 9 6 5 5 6 7 8 9 9 10 10 11 11 11 8 5 4 6 4 4 6 9 12 16
9 8 9 13 14 15 15 15 15 15 14 13 13 13 12 12 13 12 11 9 6 5 5 6 7 9 9 10 11 11 12 11 9 7 5 5 5 8 12 14 17 19 20
11 8 7 8 11 13 14 15 15 15 14 13 11 11 9 8 10 12 11 9 7 6 5 6 8 9 10 11 11 11 11 10 9 8 7 10 14 16 18 18 18 18 18
15 13 8 8 9 11 12 13 13 13 13 12 11 9 7 7 8 11 12 10 8 7 6 7 9 9 9 10 10 10 11 10 10 9 9 13 14 15 15 16 16 15 15
14 14 13 11 10 10 8 10 10 11 12 12 13 12 9 7 8 10 10 8 8 8 8 9 10 9 9 9 9 9 9 10 9 10 10 12 12 13 13 13 13 13 13
11 13 12 12 10 10 9 8 9 9 9 10 13 14 11 7 7 8 8 8 8 8 7 7 8 9 9 8 8 8 8 9 9 10 12 13 12 11 11 12 12 12 11
11 12 12 12 13 10 8 7 9 9 10 12 13 14 14 9 6 7 7 8 8 8 8 8 8 8 7 7 7 8 8 8 10 11 12 13 13 11 11 11 11 10 10
12 13 12 14 14 12 12 10 8 10 12 13 13 14 15 12 10 8 7 7 8 9 9 9 8 7 6 6 6 6 7 8 9 11 11 12 12 11 10 11 11 10 10
11 12 14 15 15 16 15 12 10 11 12 11 13 15 16 15 13 10 7 6 9 12 12 11 9 7 5 5 5 5 6 7 8 9 10 11 11 11 11 11 11 10 10
10 10 14 14 15 17 16 13 9 11 12 11 13 14 16 17 16 12 8 7 12 13 11 6 4 5 4 4 4 3 3 5 6 7 8 9 9 10 10 10 10 9 9
11 11 12 13 15 17 17 14 11 10 11 11 13 13 16 18 18 14 9 9 14 10 7 6 3 3 4 4 4 4 3 3 4 5 6 6 7 8 9 9 8 8 7
10 10 11 11 14 15 14 11 10 10 10 10 11 13 16 17 18 15 9 11 13 8 6 5 5 3 4 5 5 5 4 2 3 3 4 5 6 7 7 7 7 6 6
8 10 11 11 12 10 9 12 13 14 13 12 12 14 17 17 18 15 9 10 10 10 10 9 6 5 3 3 4 4 4 3 3 2 3 4 5 6 6 6 5 4 5
8 9 9 11 11 11 11 11 9 10 10 12 10 10 15 16 18 16 13 12 11 9 10 9 7 5 3 3 4 4 2 1 1 2 1 3 3 5 5 5 5 4 4
8 9 8 10 10 11 12 8 4 4 3 6 8 10 11 16 17 15 14 12 13 12 12 11 9 9 6 3 2 4 5 6 3 1 0 2 3 2 2 3 4 5 6
7 6 7 7 8 9 9 9 11 12 12 12 11 12 11 14 15 16 15 14 14 12 13 13 10 6 7 5 3 1 2 4 5 3 1 2 2 3 2 1 3 5 7
5 4 4 5 7 7 8 11 13 14 12 9 8 10 11 11 12 13 14 12 14 12 13 13 11 8 6 6 6 4 3 2 2 4 4 3 2 3 3 3 4 5 6
7 6 4 3 5 6 7 9 12 15 13 10 11 12 11 8 9 11 12 12 12 11 13 13 12 11 7 7 6 5 5 4 4 4 4 3 3 2 2 2 5 5 5
Wind_Direction
175 165 157 157 154 152 149 145 142 140 138 137 134 131 129 125 121 116 111 104 97 92 102 125 119 108 97 90 86 84 83 82 79 74 66 63 69 79 83 82 78 64 64
151 159 156 157 155 154 151 148 145 143 142 141 137 133 128 124 119 115 112 109 107 102 94 100 100 91 85 81 82 86 87 84 77 71 65 57 61 77 79 75 75 70 65
144 156 155 157 156 155 152 150 150 150 149 145 140 134 130 124 120 118 115 113 112 104 89 85 83 80 79 81 86 87 83 76 70 72 74 57 52 73 76 71 64 57 56
148 154 155 157 156 155 154 153 155 155 152 147 142 137 132 127 125 122 117 111 105 97 86 81 82 83 83 85 87 84 74 67 65 81 89 63 27 54 70 67 59 48 35
147 152 156 156 156 155 155 155 158 159 155 149 144 139 136 133 130 126 118 111 106 103 100 98 97 94 89 87 84 77 70 71 80 100 109 81 10 18 56 55 48 43 19
141 149 156 155 157 156 155 157 160 161 155 151 147 145 142 138 134 129 123 119 116 115 114 112 105 94 83 78 75 69 67 79 96 107 110 81 353 353 50 47 38 33 25
143 148 157 157 159 158 158 159 158 158 155 154 153 152 149 144 139 135 133 129 126 122 118 116 106 90 74 68 66 64 72 90 102 100 92 47 340 15 50 39 29 31 36
148 150 159 161 162 162 162 161 160 162 161 162 162 161 158 153 148 144 143 139 135 130 127 119 105 86 73 67 65 68 87 97 94 85 71 25 351 23 43 41 43 52 57
150 152 160 163 164 165 166 166 166 167 169 171 172 171 168 163 158 155 153 152 148 138 126 114 101 86 74 68 71 78 89 93 86 73 51 8 347 18 54 71 75 76 72
157 162 166 166 166 167 170 172 173 172 175 178 180 178 174 172 170 165 164 165 161 137 115 109 103 90 74 74 83 86 91 89 79 66 43 21 36 71 80 81 79 76 70
177 179 174 168 169 168 171 177 178 178 180 182 182 177 174 178 180 175 172 173 164 139 122 115 106 93 80 77 83 89 91 86 76 61 56 71 79 79 76 74 72 69 66
191 191 187 179 174 172 177 178 179 180 181 180 178 174 177 185 185 175 175 174 161 138 119 112 101 93 90 84 82 90 92 86 75 61 71 84 83 79 75 72 70 68 65
194 196 196 193 185 181 180 175 179 180 181 181 180 179 176 170 165 160 159 159 139 121 105 100 93 94 92 91 92 95 97 88 78 69 79 88 88 83 78 74 71 68 65
201 203 200 199 195 192 187 184 183 184 185 186 186 182 171 162 158 155 152 147 138 132 124 115 107 101 93 93 100 102 102 95 87 79 82 90 91 89 84 78 74 71 69
216 213 205 201 203 198 194 192 192 194 195 195 191 186 178 170 169 167 161 153 147 144 138 129 119 108 98 94 99 109 110 105 98 91 88 92 93 92 88 82 77 73 69
219 218 210 208 207 203 203 202 200 200 200 198 197 191 185 179 175 173 170 161 154 152 146 139 130 118 105 102 95 106 118 118 110 102 96 93 94 94 92 85 76 67 60
218 218 213 212 210 209 209 207 205 203 201 203 202 195 190 185 181 179 176 169 161 153 141 129 118 110 104 98 88 101 121 127 120 112 105 99 93 92 93 87 76 65 58
222 219 217 214 211 212 212 208 208 204 203 207 202 197 194 190 185 180 177 171 162 153 144 133 124 103 99 104 99 85 110 128 126 120 112 106 101 95 93 89 74 63 56
224 223 221 216 211 211 212 210 208 204 205 206 201 200 197 192 187 181 178 168 159 152 148 144 125 129 127 123 112 86 84 112 130 125 114 108 106 101 92 85 70 60 51
231 226 226 222 218 212 210 210 210 208 209 205 205 205 196 193 186 179 170 164 160 154 154 146 130 108 118 130 108 80 63 77 103 118 123 116 112 108 97 83 66 48 37
237 225 225 224 222 210 202 206 211 215 214 210 209 205 197 190 183 177 169 166 168 169 167 151 129 122 125 149 112 83 47 52 82 88 129 128 119 115 102 83 64 42 19
234 225 221 223 223 213 208 206 208 211 214 212 207 200 195 186 183 182 173 175 175 165 159 161 146 136 139 172 142 128 125 350 7 54 119 144 135 125 106 84 63 49 33
246 235 225 220 223 220 213 202 186 182 186 198 203 203 193 187 186 185 179 174 175 172 176 176 165 151 151 175 190 152 155 197 208 294 79 147 149 133 115 96 79 75 72
261 249 235 229 226 227 218 205 200 206 212 211 210 207 194 188 187 186 180 177 178 179 179 180 175 162 146 154 155 114 123 143 151 181 255 226 201 189 183 147 133 107 87
308 290 264 247 238 233 221 214 212 218 219 209 199 196 193 190 188 185 181 181 182 182 179 176 173 167 156 156 157 150 127 82 110 148 189 218 239 225 214 197 175 145 103
349 341 326 291 262 248 232 222 219 221 216 202 197 199 195 188 188 188 184 185 183 182 180 177 174 172 163 154 156 156 154 157 173 160 162 182 216 253 247 214 185 170 133
Height
1514 1516 1519 1522 1524 1527 1529 1531 1533 1535 1536 1537 1538 1539 1540 1541 1542 1542 1542 1541 1541 1542 1544 1544 1545 1546 1546 1547 1547 1548 1549 1549 1549 1550 1550 1550 1550 1550 1551 1551 1551 1552 1552
1514 1516 1519 1522 1524 1527 1529 1531 1533 1535 1536 1538 1539 1540 1541 1541 1542 1541 1541 1540 1541 1542 1544 1545 1546 1547 1547 1547 1548 1548 1548 1549 1549 1550 1550 1550 1550 1550 1551 1551 1552 1552 1552
1514 1516 1519 1522 1524 1527 1529 1531 1533 1535 1536 1538 1539 1540 1541 1541 1541 1541 1540 1540 1541 1543 1545 1545 1546 1547 1548 1548 1548 1549 1549 1550 1550 1551 1551 1551 1551 1551 1551 1551 1552 1552 1552
1515 1517 1519 1522 1524 1527 1529 1531 1533 1535 1536 1538 1539 1540 1541 1541 1541 1541 1541 1541 1542 1543 1545 1546 1547 1548 1549 1549 1549 1550 1551 1551 1552 1552 1552 1552 1552 1552 1552 1552 1552 1552 1552
1515 1517 1520 1522 1525 1527 1529 1531 1533 1534 1536 1538 1540 1541 1541 1542 1542 1542 1543 1543 1544 1545 1546 1548 1549 1549 1550 1550 1551 1552 1552 1553 1553 1553 1553 1553 1553 1552 1552 1552 1552 1553 1553
1515 1518 1520 1523 1525 1527 1529 1531 1533 1534 1536 1538 1540 1541 1542 1543 1543 1544 1545 1545 1546 1547 1548 1549 1550 1551 1551 1551 1552 1553 1553 1554 1554 1554 1554 1553 1553 1553 1553 1553 1553 1553 1553
1515 1518 1521 1523 1526 1528 1530 1532 1533 1535 1536 1538 1540 1541 1543 1544 1544 1545 1546 1547 1548 1548 1550 1551 1551 1552 1552 1552 1552 1553 1554 1554 1555 1555 1554 1554 1553 1553 1553 1553 1553 1553 1553
1516 1518 1521 1524 1526 1528 1530 1532 1533 1535 1536 1538 1540 1542 1543 1544 1545 1546 1547 1548 1549 1550 1551 1552 1553 1553 1553 1553 1553 1554 1554 1555 1555 1555 1554 1554 1554 1553 1553 1553 1553 1553 1553
1516 1518 1521 1523 1526 1528 1530 1532 1533 1535 1536 1538 1540 1542 1544 1545 1546 1548 1548 1549 1550 1551 1552 1553 1553 1554 1554 1554 1554 1554 1555 1555 1555 1554 1554 1554 1554 1553 1552 1552 1552 1552 1552
1516 1518 1521 1523 1526 1528 1530 1532 1533 1535 1536 1538 1540 1542 1544 1545 1547 1548 1549 1550 1551 1552 1553 1553 1554 1554 1554 1554 1554 1554 1555 1555 1554 1554 1554 1554 1553 1553 1552 1552 1552 1552 1552
1516 1518 1520 1523 1525 1527 1529 1531 1533 1534 1536 1537 1539 1541 1543 1545 1547 1548 1549 1550 1551 1552 1553 1553 1553 1554 1554 1555 1555 1554 1554 1554 1554 1553 1553 1553 1553 1553 1552 1552 1552 1551 1551
1514 1516 1519 1521 1524 1526 1528 1529 1531 1533 1535 1536 1538 1540 1542 1544 1546 1548 1549 1550 1551 1551 1552 1553 1553 1554 1554 1554 1554 1554 1553 1553 1552 1552 1552 1552 1552 1552 1552 1551 1551 1551 1551
1513 1515 1517 1520 1522 1524 1526 1527 1529 1531 1533 1535 1536 1538 1540 1542 1544 1546 1548 1549 1550 1550 1551 1552 1553 1553 1553 1553 1553 1553 1552 1552 1551 1551 1551 1551 1551 1551 1550 1550 1550 1550 1550
1512 1514 1516 1518 1520 1522 1524 1525 1527 1529 1531 1532 1534 1536 1538 1540 1542 1544 1546 1547 1548 1549 1550 1551 1552 1552 1552 1552 1552 1551 1551 1550 1550 1550 1550 1550 1550 1550 1549 1549 1549 1549 1548
1511 1513 1514 1516 1518 1520 1522 1523 1525 1526 1528 1530 1532 1533 1535 1537 1539 1541 1543 1545 1546 1547 1549 1550 1550 1551 1551 1551 1550 1550 1549 1549 1548 1549 1549 1549 1549 1549 1549 1548 1548 1548 1548
1509 1510 1512 1514 1515 1517 1519 1520 1522 1524 1526 1527 1529 1530 1531 1533 1536 1538 1540 1542 1544 1545 1546 1548 1549 1549 1549 1549 1549 1548 1548 1547 1547 1548 1548 1548 1548 1548 1548 1547 1547 1547 1547
1506 1508 1509 1510 1512 1513 1515 1517 1519 1521 1523 1524 1525 1527 1528 1530 1532 1534 1537 1539 1541 1542 1544 1545 1546 1547 1547 1547 1547 1546 1546 1546 1546 1546 1547 1547 1547 1547 1546 1546 1546 1546 1545
1502 1503 1505 1506 1508 1509 1510 1512 1515 1517 1519 1520 1522 1523 1524 1526 1528 1530 1532 1535 1537 1539 1541 1543 1544 1544 1544 1544 1544 1544 1544 1544 1545 1545 1545 1545 1545 1545 1545 1545 1545 1544 1544
1496 1497 1499 1501 1502 1504 1505 1507 1509 1512 1514 1516 1518 1519 1520 1521 1523 1525 1528 1531 1533 1536 1538 1540 1541 1541 1542 1542 1542 1542 1542 1542 1543 1543 1544 1544 1544 1544 1543 1543 1543 1543 1542
1489 1490 1492 1494 1496 1498 1500 1501 1503 1506 1508 1510 1512 1514 1515 1517 1519 1521 1523 1526 1528 1531 1533 1536 1537 1538 1539 1539 1539 1539 1540 1540 1540 1541 1541 1542 1542 1541 1541 1541 1540 1540 1539
1482 1483 1484 1486 1489 1491 1493 1494 1496 1498 1500 1502 1505 1508 1510 1512 1514 1516 1518 1521 1523 1526 1529 1531 1533 1535 1535 1536 1536 1536 1537 1538 1538 1539 1539 1539 1539 1539 1538 1538 1537 1537 1536
1475 1476 1477 1479 1481 1483 1485 1487 1489 1491 1493 1496 1498 1501 1504 1506 1508 1511 1512 1515 1518 1521 1524 1526 1528 1530 1531 1532 1533 1533 1534 1536 1535 1535 1536 1536 1536 1535 1535 1534 1533 1533 1532
1467 1469 1471 1473 1475 1477 1479 1481 1482 1484 1485 1488 1490 1493 1496 1499 1502 1504 1506 1509 1512 1515 1518 1521 1523 1525 1526 1528 1529 1530 1529 1529 1531 1532 1532 1532 1532 1532 1531 1530 1529 1528 1527
1461 1462 1464 1467 1469 1471 1472 1473 1474 1475 1476 1479 1482 1486 1489 1492 1495 1498 1500 1503 1505 1508 1512 1515 1517 1520 1521 1523 1524 1525 1526 1526 1527 1527 1528 1528 1528 1528 1527 1526 1525 1524 1523
1458 1459 1460 1462 1463 1465 1466 1466 1467 1468 1470 1472 1475 1478 1481 1484 1487 1490 1493 1496 1499 1502 1505 1508 1511 1514 1516 1517 1518 1519 1520 1521 1522 1523 1523 1523 1524 1523 1523 1522 1521 1520 1519
1457 1458 1458 1458 1459 1459 1460 1460 1460 1461 1463 1464 1466 1469 1472 1475 1479 1482 1486 1489 1492 1495 1498 1501 1505 1507 1510 1512 1513 1515 1516 1517 1517 1518 1518 1518 1519 1519 1518 1517 1517 1515 1514